Creek Data

    Home     View Charts     View Raw Data     Messages

ID Distance Battery Voltage Battery Current Internal Temp Internal Humidity External Temp Solar Input rssi snr Time Stamp Record
36411 0.0 4.03 0 68 41 66 5.1 -85 8 03/30/2025 04:45 PM 18264
36410 0.0 4.03 0 67 42 66 5.1 -81 8 03/30/2025 04:30 PM 18263
36409 0.0 4.03 0 66 42 65 5.1 -81 8 03/30/2025 04:15 PM 18262
36408 0.0 4.03 0 69 41 65 5.1 -77 8 03/30/2025 04:00 PM 18261
36407 0.0 4.04 0 70 40 65 5.1 -79 9 03/30/2025 03:45 PM 18260
36406 0.0 4.03 0 72 38 67 5.1 -79 8 03/30/2025 03:16 PM 18258
36405 0.0 4.03 0 70 38 66 5.1 -78 8 03/30/2025 03:00 PM 18257
36404 0.0 4.03 0 68 39 65 5.1 -76 8 03/30/2025 02:45 PM 18256
36403 0.0 4.03 0 69 38 65 5.1 -80 7 03/30/2025 02:30 PM 18255
36402 0.0 4.03 0 68 38 65 5.1 -81 7 03/30/2025 02:16 PM 18254
36401 0.0 4.03 0 66 38 64 5.1 -80 8 03/30/2025 02:00 PM 18253
36400 0.0 4.14 0 63 40 61 5.1 -80 7 03/30/2025 01:45 PM 18252
36399 0.0 4.03 0 63 39 61 5.1 -80 8 03/30/2025 01:30 PM 18251
36398 0.0 4.03 0 63 39 61 5.1 -84 9 03/30/2025 01:15 PM 18250
36397 0.0 4.03 0 62 39 60 5.1 -81 9 03/30/2025 01:01 PM 18249
36396 0.0 4.05 0 61 39 59 5.1 -86 8 03/30/2025 12:45 PM 18248
36395 0.0 4.03 0 60 39 59 5.1 -83 9 03/30/2025 12:31 PM 18247
36394 0.0 4.03 0 61 38 59 5.1 -85 9 03/30/2025 12:15 PM 18246
36393 0.0 4.03 0 59 39 59 5.1 -87 7 03/30/2025 12:00 PM 18245
36392 0.0 4.03 0 58 39 57 5.1 -82 9 03/30/2025 11:45 AM 18244
36391 0.0 4.14 0 58 38 57 5.1 -78 9 03/30/2025 11:30 AM 18243
36390 0.0 4.03 0 57 39 56 5.1 -87 8 03/30/2025 11:15 AM 18242
36389 15.2 4.03 0 56 39 55 5.1 -82 8 03/30/2025 11:00 AM 18241
36388 0.0 4.03 0 56 39 55 5.1 -86 8 03/30/2025 10:45 AM 18240
36387 0.0 4.03 0 55 39 55 5.1 -91 7 03/30/2025 10:30 AM 18239